This demonstration page uses our WeatherBlox Daily Observations layout. Learn more.

Left ArrowRight Arrow

44.8408, -93.29828

Hourly Observations for September 26, 2019

Temp ( °F °C ) Dew Point ( °F °C ) Humidity (%) Winds ( mph kmh ) Pressure ( in mb ) Visibility ( mi km ) Precip ( " mm )
12:53 am 00:53 Clear 55 12.8 42 5.6 62 62 WSW 9 15 29.87 1012 10 16 0.00 0.00
1:53 am 01:53 Clear 54 12.2 42 5.6 64 64 WSW 8 13 29.87 1012 10 16 0.00 0.00
2:53 am 02:53 Clear 52 11.1 42 5.6 69 69 WSW 8 13 29.87 1012 10 16 0.00 0.00
3:53 am 03:53 Clear 52 11.1 42 5.6 69 69 WSW 7 11 29.87 1012 10 16 0.00 0.00
4:53 am 04:53 Clear 50 10 43 6.1 77 77 W 7 11 29.88 1012 10 16 0.00 0.00
5:53 am 05:53 Clear 50 10 43 6.1 77 77 SW 3 6 29.90 1012 10 16 0.00 0.00
6:53 am 06:53 Mostly Clear 50 10 43 6.1 77 77 SSW 6 9 29.90 1013 10 16 0.00 0.00
7:53 am 07:53 Mostly Sunny 49 9.4 43 6.1 80 80 SSW 5 7 29.91 1013 10 16 0.00 0.00
8:53 am 08:53 Mostly Sunny 52 11.1 44 6.7 75 75 SW 9 15 29.93 1014 10 16 0.00 0.00
9:53 am 09:53 Mostly Sunny 55 12.8 44 6.7 67 67 WSW 6 9 29.94 1014 10 16 0.00 0.00
10:53 am 10:53 Mostly Cloudy 59 15 45 7.2 60 60 SSW 8 13 29.93 1014 10 16 0.00 0.00
11:53 am 11:53 Mostly Cloudy 61 16.1 44 6.7 54 54 WSW 13 20 29.92 1013 10 16 0.00 0.00
12:53 pm 12:53 Mostly Cloudy 63 17.2 44 6.7 50 50 SW 14 22 29.90 1013 10 16 0.00 0.00
1:53 pm 13:53 Mostly Cloudy 65 18.3 43 6.1 45 45 WSW 9 15 29.87 1012 10 16 0.00 0.00
2:53 pm 14:53 Mostly Cloudy 68 20 43 6.1 40 40 SW 10 17 29.85 1011 10 16 0.00 0.00
3:53 pm 15:53 Cloudy 68 20 43 6.1 40 40 SSW 8 13 29.83 1010 10 16 0.00 0.00
4:53 pm 16:53 Cloudy 67 19.4 43 6.1 42 42 SSE 7 11 29.78 1009 10 16 0.00 0.00
5:53 pm 17:53 Cloudy 66 18.9 45 7.2 47 47 SE 8 13 29.75 1007 10 16 0.00 0.00
6:53 pm 18:53 Cloudy 65 18.3 46 7.8 51 51 SSE 8 13 29.73 1007 10 16 0.00 0.00
7:53 pm 19:53 Cloudy 64 17.8 47 8.3 54 54 SSE 8 13 29.71 1006 10 16 0.00 0.00
8:53 pm 20:53 Cloudy 65 18.3 46 7.8 51 51 VRB 7 11 29.70 1006 10 16 0.00 0.00
9:53 pm 21:53 Cloudy 65 18.3 45 7.2 49 49 S 10 17 29.69 1005 10 16 0.00 0.00
10:53 pm 22:53 Cloudy 65 18.3 45 7.2 49 49 S 16 26 29.66 1004 10 16 0.00 0.00
11:53 pm 23:53 Cloudy 63 17.2 46 7.8 54 54 S 14 22 29.63 1004 10 16 0.00 0.00

Powered by AerisWeather